Weather reports worldwide

Advertisment
Spadeadam, United Kingdom (3224): temperature & dewpoint: 13.02.2018 15:00:00 - 19.02.2018 15:00:00 (GMT)Spadeadam, United Kingdom (3224): temperature -20cm: 13.02.2018 15:00:00 - 19.02.2018 15:00:00 (GMT)Spadeadam, United Kingdom (3224): wind speed & gusts: 13.02.2018 15:00:00 - 19.02.2018 15:00:00 (GMT)Spadeadam, United Kingdom (3224): wind direction: 13.02.2018 15:00:00 - 19.02.2018 15:00:00 (GMT)Spadeadam, United Kingdom (3224): reduced air pressure: 13.02.2018 15:00:00 - 19.02.2018 15:00:00 (GMT)Spadeadam, United Kingdom (3224): visibility: 13.02.2018 15:00:00 - 19.02.2018 15:00:00 (GMT)Spadeadam, United Kingdom (3224): precipitation: 13.02.2018 15:00:00 - 19.02.2018 15:00:00 (GMT)
Date & Time tt [°C] td [°C] tt -20cm [°C] ff [km/h] ff [kn] fx [km/h] fx [kn] dd ppp [hPa] vv [km] rr [mm]
19.02.2018 15:00:00 8,9 8,9 - 18 10 - - W 1016,0 5 0,0
19.02.2018 14:00:00 8,8 8,8 - 15 8 - - W 1015,8 7 0,0
19.02.2018 13:00:00 8,3 8,3 - 21 11 - - W 1016,2 1,5 0,0
19.02.2018 12:00:00 7,8 7,8 - 18 10 - - W 1016,1 0,2 0,0
19.02.2018 11:00:00 6,8 6,8 - 18 10 - - W 1016,5 0,1 0,0
19.02.2018 10:00:00 6,3 6,3 - 16 9 - - W 1016,8 - 0,2
19.02.2018 09:00:00 6,0 6,0 - 16 9 - - W - 0,1 0,2
19.02.2018 08:00:00 5,8 5,8 - 15 8 - - W 1015,3 0,1 0,0
19.02.2018 07:00:00 5,9 5,9 - 18 10 - - W 1014,9 0,2 0,4
19.02.2018 06:00:00 5,9 5,9 - 15 8 - - W 1014,7 0,6 0,6
19.02.2018 05:00:00 5,8 5,8 - 18 10 - - W 1014,4 0,8 0,8
19.02.2018 04:00:00 5,8 5,8 - 16 9 - - W 1014,3 0,4 1,4
19.02.2018 03:00:00 5,8 5,8 - 16 9 - - W 1014,9 0,2 0,8
19.02.2018 02:00:00 5,5 5,5 - 15 8 - - WSW 1015,2 0,1 0,4
19.02.2018 01:00:00 5,3 5,3 - 15 8 - - WSW 1015,0 0,1 0,0
19.02.2018 00:00:00 5,3 5,3 - 22 12 - - WSW 1015,2 1,9 0,2
18.02.2018 23:00:00 5,0 5,0 - 16 9 - - SW 1015,5 2,6 0,2
18.02.2018 22:00:00 4,9 4,9 - 15 8 - - SW 1015,9 4,1 0,2
18.02.2018 21:00:00 4,6 4,6 - 8 4 - - SSW 1016,3 2,2 0,4
18.02.2018 20:00:00 4,5 4,5 - 9 5 - - SW 1016,8 2,5 0,4
18.02.2018 19:00:00 4,2 4,2 - 8 4 - - SW 1017,0 3,6 0,2
18.02.2018 18:00:00 4,1 4,0 - 9 5 - - S 1017,2 5 0,2
18.02.2018 17:00:00 4,3 4,0 - 8 4 - - S 1017,3 6 0,4
18.02.2018 16:00:00 5,0 4,1 - 11 6 - - SW 1017,5 9 0,0
18.02.2018 15:00:00 5,8 4,2 - 15 8 - - SW 1017,6 22 0,0
18.02.2018 14:00:00 6,6 4,8 - 15 8 - - SW 1017,7 10 0,0
18.02.2018 13:00:00 6,0 4,8 - 18 10 - - SW 1018,2 23 0,0
18.02.2018 12:00:00 5,3 4,9 - 5 3 - - SSE 1018,4 10 0,0
18.02.2018 11:00:00 3,5 3,5 - 5 3 - - E 1018,9 8 0,0
18.02.2018 10:00:00 2,0 2,0 - 4 2 - - NNE 1019,3 3,9 0,0
18.02.2018 09:00:00 0,7 0,7 2,4 4 2 - - E 1019,6 7 0,0
18.02.2018 08:00:00 0,5 0,5 - 8 4 - - ENE 1019,8 9 0,0
18.02.2018 07:00:00 0,2 0,2 - 4 2 - - NNE 1020,2 8 0,0
18.02.2018 06:00:00 0,1 0,1 - 2 1 - - NNE 1019,8 3,6 0,0
18.02.2018 05:00:00 0,3 0,3 - 8 4 - - NNE 1019,8 5 0,0
18.02.2018 04:00:00 1,2 1,1 - 5 3 - - SE 1019,5 10 0,0
18.02.2018 03:00:00 1,8 1,7 - 5 3 - - ESE 1019,6 10 0,2
18.02.2018 02:00:00 1,9 1,9 - 8 4 - - SW 1020,0 10 0,0
18.02.2018 01:00:00 1,9 1,9 - 9 5 - - WSW 1020,1 10 0,0
18.02.2018 00:00:00 2,0 2,0 - 2 1 - - SSE 1020,0 10 0,0
17.02.2018 23:00:00 1,9 1,9 - 5 3 - - S 1019,8 5 0,0
17.02.2018 22:00:00 3,0 2,9 - 11 6 - - SW 1019,4 10 0,8
17.02.2018 21:00:00 2,6 2,5 - 8 4 - - SW 1019,3 12 3,0
17.02.2018 20:00:00 3,1 3,0 - 9 5 - - SW 1019,3 5 0,4
17.02.2018 19:00:00 3,6 3,2 - 16 9 - - WSW 1019,0 5 0,2
17.02.2018 18:00:00 3,4 3,1 - 9 5 - - W 1018,6 10 0,0
17.02.2018 17:00:00 3,9 3,4 - 15 8 - - W 1018,0 11 0,0
17.02.2018 16:00:00 4,7 3,7 - 18 10 - - W 1017,5 10 0,0
17.02.2018 15:00:00 4,6 3,9 - 21 11 - - W 1017,3 10 0,2
17.02.2018 14:00:00 4,5 3,5 - 24 13 - - W 1017,4 7 0,0
17.02.2018 13:00:00 4,5 3,8 - 22 12 - - SW 1017,3 10 0,0
17.02.2018 12:00:00 4,7 3,0 - 22 12 - - SW 1017,2 10 0,0
17.02.2018 11:00:00 4,4 3,5 - 22 12 - - SW 1017,0 10 0,0
17.02.2018 10:00:00 3,5 2,7 - 28 15 - - WSW 1016,7 10 0,2
17.02.2018 09:00:00 2,3 2,0 2,0 21 11 - - SW 1016,6 7 0,2
17.02.2018 08:00:00 1,9 1,5 - 24 13 - - SW 1016,3 6 0,2
17.02.2018 07:00:00 2,2 1,5 - 24 13 - - SSW 1016,0 10 0,2
17.02.2018 06:00:00 2,1 1,2 - 26 14 - - SSW 1015,8 10 0,0
17.02.2018 05:00:00 2,2 1,1 - 26 14 - - SSW 1015,9 40 0,2
17.02.2018 04:00:00 2,4 0,8 - 26 14 48 26 SSW 1016,2 10 0,0
17.02.2018 03:00:00 2,3 0,9 - 29 16 - - SSW 1016,6 10 0,0
17.02.2018 02:00:00 2,6 0,8 - 29 16 46 25 SSW 1017,2 10 0,0
17.02.2018 01:00:00 2,8 0,9 - 28 15 - - SSW 1017,4 35 0,0
17.02.2018 00:00:00 3,1 0,8 - 28 15 - - S 1017,6 10 0,0
16.02.2018 23:00:00 3,1 0,9 - 26 14 48 26 SSW 1017,8 35 0,0
16.02.2018 22:00:00 3,2 1,4 - 26 14 - - S 1017,8 25 0,0
16.02.2018 21:00:00 2,7 1,4 - 21 11 - - S 1018,3 10 0,0
16.02.2018 20:00:00 2,7 1,5 - 26 14 - - S 1018,5 10 0,0
16.02.2018 19:00:00 2,1 0,8 - 18 10 - - S 1019,0 10 0,0
16.02.2018 18:00:00 3,4 1,4 - 15 8 - - S 1019,0 10 0,0
16.02.2018 17:00:00 4,7 2,3 - 18 10 48 26 SSW 1018,7 10 0,0
16.02.2018 16:00:00 5,3 2,6 - 31 17 48 26 WSW 1018,5 10 0,0
16.02.2018 15:00:00 5,2 2,2 - 35 19 54 29 WSW 1018,4 10 0,0
16.02.2018 14:00:00 5,9 2,0 - 35 19 50 27 WSW 1018,5 10 0,0
16.02.2018 13:00:00 5,1 1,9 - 34 18 52 28 WSW 1019,0 26 0,0
16.02.2018 12:00:00 4,5 2,3 - 31 17 54 29 WSW 1019,0 10 0,0
16.02.2018 11:00:00 3,8 2,0 - 35 19 50 27 WSW 1018,8 10 0,0
16.02.2018 10:00:00 2,8 1,4 - 28 15 - - WSW 1018,9 10 0,0
16.02.2018 09:00:00 1,9 1,1 1,7 31 17 - - WSW 1018,3 10 0,0
16.02.2018 08:00:00 1,3 0,9 - 26 14 - - WSW 1017,7 10 0,0
16.02.2018 07:00:00 0,9 0,4 - 29 16 46 25 W 1017,1 10 0,0
16.02.2018 06:00:00 0,8 0,5 - 28 15 - - WSW 1016,4 9 0,0
16.02.2018 05:00:00 0,7 0,2 - 24 13 - - W 1016,0 10 0,0
16.02.2018 04:00:00 0,2 -0,4 - 26 14 - - WSW 1015,4 14 0,0
16.02.2018 03:00:00 0,4 -0,4 - 26 14 - - W 1014,9 10 0,0
16.02.2018 02:00:00 0,7 -0,4 - 34 18 54 29 W 1013,8 10 0,0
16.02.2018 01:00:00 0,5 -0,7 - 37 20 55 30 W 1012,9 10 0,0
16.02.2018 00:00:00 0,5 -0,5 - 35 19 55 30 W 1012,2 18 0,0
15.02.2018 23:00:00 0,6 -1,2 - 44 24 61 33 W 1010,8 10 0,0
15.02.2018 22:00:00 0,9 -0,9 - 37 20 63 34 WSW 1009,6 10 0,0
15.02.2018 21:00:00 1,0 -1,2 - 39 21 57 31 WSW 1008,7 10 0,0
15.02.2018 20:00:00 1,4 -0,6 - 29 16 - - WSW 1007,8 10 0,0
15.02.2018 19:00:00 1,7 0,2 - 35 19 65 35 WSW 1007,0 10 0,0
15.02.2018 18:00:00 2,1 -0,3 - 35 19 61 33 WSW 1005,9 10 0,0
15.02.2018 17:00:00 2,2 -0,6 - 42 23 63 34 WSW 1004,7 10 0,0
15.02.2018 16:00:00 2,1 -0,5 - 50 27 72 39 WSW 1003,6 10 0,0
15.02.2018 15:00:00 2,5 -0,8 - 54 29 72 39 WSW 1002,7 10 0,0
15.02.2018 14:00:00 2,3 -0,6 - 48 26 70 38 WSW 1002,2 10 0,0
15.02.2018 13:00:00 2,5 -0,3 - 46 25 68 37 WSW 1001,4 10 0,0
15.02.2018 12:00:00 2,7 0,4 - 41 22 63 34 WSW 1000,7 10 0,2
15.02.2018 11:00:00 2,3 0,5 - 37 20 63 34 WSW 1000,0 10 0,2
15.02.2018 10:00:00 1,8 0,5 - 35 19 50 27 WSW 999,1 10 0,0
15.02.2018 09:00:00 1,6 -0,2 1,5 26 14 - - WSW 998,4 10 0,0
15.02.2018 08:00:00 1,6 -0,7 - 24 13 57 31 WSW 997,6 10 0,0
15.02.2018 07:00:00 1,8 0,0 - 22 12 - - SW 996,3 10 0,0
15.02.2018 06:00:00 2,3 0,6 - 21 11 - - WSW 995,7 10 0,0
15.02.2018 05:00:00 2,9 2,0 - 22 12 - - WSW 995,1 10 0,0
15.02.2018 04:00:00 2,8 2,7 - 18 10 - - SW 994,3 10 0,2
15.02.2018 03:00:00 2,2 2,0 - 18 10 - - WSW 994,0 10 0,2
15.02.2018 02:00:00 3,5 2,4 - 31 17 54 29 WSW 993,4 8 0,0
15.02.2018 01:00:00 3,4 1,6 - 26 14 - - SSW 992,4 17 0,0
15.02.2018 00:00:00 2,5 1,9 - 18 10 - - SW 992,6 10 0,0
14.02.2018 23:00:00 3,4 2,9 - 22 12 - - SW 992,6 10 0,2
14.02.2018 22:00:00 3,7 3,2 - 21 11 - - SW 992,1 10 0,0
14.02.2018 21:00:00 3,5 3,2 - 22 12 - - SW 992,0 10 0,0
14.02.2018 20:00:00 3,7 2,3 - 31 17 54 29 SW 991,4 10 0,0
14.02.2018 19:00:00 4,0 2,4 - 35 19 61 33 SSW 990,9 10 0,0
14.02.2018 18:00:00 3,4 2,5 - 41 22 63 34 SSW 990,7 10 0,0
14.02.2018 17:00:00 3,1 2,3 - 37 20 61 33 S 990,6 10 0,2
14.02.2018 16:00:00 2,8 1,8 - 34 18 55 30 S 990,6 10 0,0
14.02.2018 15:00:00 2,3 1,2 - 31 17 54 29 S 991,1 10 0,0
14.02.2018 14:00:00 2,0 0,8 - 29 16 50 27 S 991,9 10 0,0
14.02.2018 13:00:00 1,3 0,6 - 35 19 63 34 S 992,2 10 0,2
14.02.2018 12:00:00 1,2 -0,2 - 39 21 68 37 S 993,5 10 0,0
14.02.2018 11:00:00 1,3 -1,8 - 29 16 57 31 S 994,7 10 0,0
14.02.2018 10:00:00 0,6 -3,6 - 35 19 65 35 SSE 996,0 10 -
14.02.2018 09:00:00 0,4 -3,2 1,7 34 18 54 29 S 997,6 10 0,0
14.02.2018 08:00:00 -0,1 -3,3 - 24 13 - - S 998,3 10 0,0
14.02.2018 07:00:00 -0,4 -3,9 - 31 17 52 28 S 999,0 10 0,0
14.02.2018 06:00:00 -0,7 -3,4 - 28 15 - - SSE 999,9 45 0,0
14.02.2018 05:00:00 -1,2 -3,3 - 18 10 - - SSE 1001,3 10 0,0
14.02.2018 04:00:00 -0,2 -2,7 - 22 12 - - S 1001,5 10 0,0
14.02.2018 03:00:00 -0,3 -2,0 - 22 12 - - S 1002,2 10 0,0
14.02.2018 02:00:00 -2,4 -3,7 - 11 6 - - S 1003,3 10 0,0
14.02.2018 01:00:00 -2,7 -4,4 - 11 6 - - SSW 1003,9 10 0,0
14.02.2018 00:00:00 -2,9 -4,1 - 11 6 - - SW 1003,9 10 0,0
13.02.2018 23:00:00 -1,8 -2,6 - 13 7 - - SW 1003,4 35 0,0
13.02.2018 22:00:00 -3,0 -3,7 - 11 6 - - SSW 1003,6 10 0,0
13.02.2018 21:00:00 -2,2 -2,7 - 4 2 - - S 1003,5 10 0,0
13.02.2018 20:00:00 -1,4 -2,2 - 15 8 - - WSW 1003,1 10 0,0
13.02.2018 19:00:00 -0,8 -1,7 - 11 6 - - WSW 1002,5 10 0,0
13.02.2018 18:00:00 -0,6 -1,1 - 11 6 - - WSW 1001,7 10 0,0
13.02.2018 17:00:00 0,6 -0,1 - 16 9 - - W 1000,6 10 0,0
13.02.2018 16:00:00 1,5 0,0 - 18 10 - - W 999,1 10 0,0
13.02.2018 15:00:00 1,2 0,4 - 24 13 - - W 998,2 10 0,0

tt = temperature
td = dewpoint
tt -20cm = temperature -20cm
ff = wind speed
fx = gusts
dd = wind direction
ppp = reduced air pressure
vv = visibility
rr = precipitation

Next stations